This is the latest recevied weather packets stored in our database for station/object KC8BSD. If no packets are shown the sender has not sent any weather packets the latest 10 day(s).
| Time | Temp. | Humidity | Pressure | Rain* | Wind** | Luminosity | Snow |
|---|---|---|---|---|---|---|---|
| 1777658619 | 9.44° C | 52% | 1015.2 hPa | 0 mm | - | 267 W/m² | - |
| 1777658317 | 9.44° C | 56% | 1015 hPa | 0 mm | - | 229 W/m² | - |
| 1777658013 | 9.44° C | 54% | 1014.8 hPa | 0 mm | - | 177 W/m² | - |
| 1777657710 | 9.44° C | 54% | 1014.7 hPa | 0 mm | - | 151 W/m² | - |
| 1777657408 | 10° C | 52% | 1014.9 hPa | 0 mm | - | 154 W/m² | - |
| 1777657106 | 9.44° C | 56% | 1014.7 hPa | 0 mm | - | 247 W/m² | - |
| 1777656803 | 10° C | 55% | 1014.8 hPa | 0 mm | - | 341 W/m² | - |
| 1777656498 | 9.44° C | 53% | 1015.1 hPa | 0 mm | - | 335 W/m² | - |
| 1777656193 | 9.44° C | 53% | 1014.7 hPa | 0 mm | - | 289 W/m² | - |
| 1777655889 | 9.44° C | 55% | 1014.7 hPa | 0 mm | - | 248 W/m² | - |
| 1777655586 | 9.44° C | 53% | 1015 hPa | 0 mm | - | 222 W/m² | - |
| 1777655283 | 10.56° C | 53% | 1014.8 hPa | 0 mm | - | 238 W/m² | - |
| 1777654980 | 10.56° C | 54% | 1014.8 hPa | 0 mm | - | 466 W/m² | - |
| 1777654677 | 9.44° C | 54% | 1015.1 hPa | 0 mm | - | 454 W/m² | - |
| 1777654375 | 9.44° C | 58% | 1015.1 hPa | 0 mm | - | 314 W/m² | - |
| 1777654073 | 8.89° C | 58% | 1015 hPa | 0 mm | - | 278 W/m² | - |
| 1777653770 | 8.89° C | 59% | 1014.9 hPa | 0 mm | - | 247 W/m² | - |
| 1777653465 | 8.89° C | 58% | 1015 hPa | 0 mm | - | 188 W/m² | - |
| 1777653163 | 8.89° C | 57% | 1015 hPa | 0 mm | - | 134 W/m² | - |
| 1777652858 | 8.89° C | 57% | 1015.1 hPa | 0 mm | - | 112 W/m² | - |
| 1777652555 | 8.89° C | 55% | 1014.7 hPa | 0 mm | - | 133 W/m² | - |
| 1777652252 | 9.44° C | 56% | 1014.9 hPa | 0 mm | - | 225 W/m² | - |
| 1777651950 | 9.44° C | 54% | 1014.7 hPa | 0 mm | - | 276 W/m² | - |
| 1777651646 | 9.44° C | 53% | 1014.8 hPa | 0 mm | - | 362 W/m² | - |
| 1777651343 | 9.44° C | 55% | 1014.8 hPa | 0 mm | - | 283 W/m² | - |
* Rain latest hour (hover to see other rain measurements)
** Current wind speed in m/s (hover to see current wind gust speed)